Hourly Data Report for October 19, 2004

SHERBROOKE A
QUEBEC

45°26'00.000" N
71°41'00.000" W
241.40 m
7028124
71610
YSC

Download Data

Hourly Data (October 2004)
Hourly Data Report for October 19, 2004
TIME
LST
Temp Definition
°C
Dew Point Definition
°C
Rel Hum Definition
%
Precip. Amount Definition
mm

Wind Dir Definition
10's deg

Wind Spd Definition
km/h
Visibility Definition
km
Stn Press Definition
kPa
Hmdx Definition


Wind Chill Definition


Weather Definition


00:00 3.7 0.6 80   24 6 15.0 99.34      
01:00 3.4 1.4 87   26 6 15.0 99.37      
02:00 3.3 1.0 85     0 15.0 99.34      
03:00 3.4 1.3 86     0 15.0 99.37      
04:00 2.7 1.2 90     0 15.0 99.40      
05:00 1.1 -0.1 92     0 15.0 99.43      
06:00 -0.9 -2.2 91   9 4 12.9 99.45   -2  
07:00 -0.1 -1.1 93     0 19.3 99.48     Mostly Cloudy
08:00 2.5 1.2 91     0 24.1 99.49     Mainly Clear
09:00 5.6 2.0 78     0 24.1 99.55     Mostly Cloudy
10:00 5.8 1.2 72   1 6 24.1 99.57     Mainly Clear
11:00 7.8 1.1 63   5 13 24.1 99.51     Mainly Clear
12:00 8.3 -0.5 54   10 7 24.1 99.47     Mainly Clear
13:00 8.6 -0.5 53   10 11 24.1 99.46     Mainly Clear
14:00 9.7 0.7 53   3 11 24.1 99.49     Mostly Cloudy
15:00 9.3 1.3 57   2 9 24.1 99.50     Mainly Clear
16:00 7.7 0.8 62   3 11 24.1 99.49     Mainly Clear
17:00 6.0 -0.2 64   3 9 15.0 99.49      
18:00 4.9 0.0 71   5 9 15.0 99.52      
19:00 3.6 -0.4 75   7 7 15.0 99.52      
20:00 2.3 -0.7 81   9 7 15.0 99.58      
21:00 1.5 -0.9 84   10 9 15.0 99.59      
22:00 1.6 -0.5 86   5 11 15.0 99.63      
23:00 1.8 -0.4 85   4 11 15.0 99.62      

Notes on Data Quality.

Legend

  • E = Estimated
  • M = Missing
  • NA = Not Available*
  • [empty] = Indicates an unobserved value
Date modified: